This is the latest recevied weather packets stored in our database for station/object K2ATL. If no packets are shown the sender has not sent any weather packets the latest 10 day(s).
| Time | Temp. | Humidity | Pressure | Rain* | Wind** | Luminosity | Snow |
|---|---|---|---|---|---|---|---|
| 1787439775 | 27.22° C | 68% | 1101.2 hPa | 0 mm | - | 100 W/m² | - |
| 1787439471 | 27.78° C | 69% | 1101.1 hPa | 0 mm | - | 115 W/m² | - |
| 1787439167 | 27.22° C | 68% | 1101.1 hPa | 0 mm | - | 134 W/m² | - |
| 1787438863 | 27.22° C | 70% | 1101.1 hPa | 0 mm | - | 150 W/m² | - |
| 1787438562 | 27.78° C | 64% | 1101.2 hPa | 0 mm | - | 179 W/m² | - |
| 1787438257 | 27.22° C | 67% | 1101.2 hPa | 0 mm | - | 205 W/m² | - |
| 1787437952 | 27.78° C | 66% | 1101.2 hPa | 0 mm | - | 218 W/m² | - |
| 1787437648 | 27.78° C | 67% | 1101.1 hPa | 0 mm | - | 236 W/m² | - |
| 1787437344 | 27.22° C | 66% | 1100.9 hPa | 0 mm | - | 257 W/m² | - |
| 1787437041 | 27.22° C | 68% | 1100.9 hPa | 0 mm | - | 278 W/m² | - |
| 1787436736 | 27.22° C | 70% | 1100.9 hPa | 0 mm | - | 295 W/m² | - |
| 1787436433 | 27.22° C | 64% | 1100.8 hPa | 0 mm | - | 314 W/m² | - |
| 1787436132 | 27.22° C | 62% | 1100.7 hPa | 0 mm | - | 332 W/m² | - |
| 1787435831 | 27.22° C | 63% | 1100.9 hPa | 0 mm | - | 347 W/m² | - |
| 1787435528 | 27.78° C | 65% | 1100.9 hPa | 0 mm | - | 368 W/m² | - |
| 1787435225 | 27.78° C | 65% | 1101 hPa | 0 mm | - | 388 W/m² | - |
| 1787434920 | 27.22° C | 66% | 1100.9 hPa | 0 mm | - | 407 W/m² | - |
| 1787434616 | 27.78° C | 68% | 1101 hPa | 0 mm | - | 423 W/m² | - |
| 1787434312 | 27.22° C | 62% | 1101 hPa | 0 mm | - | 446 W/m² | - |
| 1787434008 | 27.22° C | 67% | 1100.9 hPa | 0 mm | - | 464 W/m² | - |
| 1787433708 | 27.78° C | 62% | 1101.1 hPa | 0 mm | - | 483 W/m² | - |
| 1787433404 | 27.78° C | 64% | 1101.1 hPa | 0 mm | - | 502 W/m² | - |
| 1787433099 | 27.78° C | 67% | 1101 hPa | 0 mm | - | 521 W/m² | - |
| 1787432796 | 27.78° C | 66% | 1101.1 hPa | 0 mm | - | 540 W/m² | - |
| 1787432492 | 27.78° C | 67% | 1101.4 hPa | 0 mm | - | 561 W/m² | - |
* Rain latest hour (hover to see other rain measurements)
** Current wind speed in m/s (hover to see current wind gust speed)